Weather History for KALO - June, 2013

Change the Weather History Date:

Tuesday, June 4, 2013

  Actual Average Record
Temperature  
Mean Temperature 58 °F 67 °F  
Max Temperature 61 °F 78 °F 96 °F (1934)
Min Temperature 55 °F 56 °F 36 °F (1945)
Degree Days  
Heating Degree Days 7 2  
Month to date heating degree days 23 8  
Since 1 June heating degree days 23 8  
Since 1 July heating degree days 7256 7012  
Cooling Degree Days 0 4  
Month to date cooling degree days 0 13  
Year to date cooling degree days 53 69  
Since 1 June cooling degree days 0 13  
Growing Degree Days 8 (Base 50)    
Moisture  
Dew Point 51 °F    
Average Humidity 75    
Maximum Humidity 86    
Minimum Humidity 64    
Precipitation  
Precipitation 0.29 in 0.16 in 2.79 in (1986)
Month to date precipitation 0.40 0.63  
Year to date precipitation 23.98 12.75  
Snow  
Snow 0.00 in 0.00 in - ()
Month to date snowfall 0.0 0.0  
Since 1 June snowfall 0.0 0.0  
Since 1 July snowfall 50.0 35.3  
Snow Depth 0.00 in    
Sea Level Pressure  
Sea Level Pressure 30.05 in    
Wind  
Wind Speed 11 mph (ESE)    
Max Wind Speed 20 mph    
Max Gust Speed 24 mph    
Visibility 10 miles    
Events Rain    
T = Trace of Precipitation, MM = Missing Value Source: NWS Daily Summary

Daily Weather History Graph

Daily Weather History Graph

Search for Another Location

Airport or City:

Trip Planner

Search our weather history database for the weather conditions in past years. The results will help you decide how hot, cold, wet, or windy it might be!

Date:

Astronomy

Jun. 04, 2013 Rise Set
Actual Time 5:33 AM CDT 8:43 PM CDT
Civil Twilight 4:59 AM CDT 9:17 PM CDT
Nautical Twilight 4:14 AM CDT 10:01 PM CDT
Astronomical Twilight 3:22 AM CDT 10:54 PM CDT
Moon 3:07 AM CDT (6/4) 5:09 PM CDT (6/4)
Length of Visible Light 16h 18m
Length of Day
15h 09m
Waning Crescent, 14% of the Moon is Illuminated
Jun 4
Waning Crescent
Jun 8
New
Jun 16
First Quarter
Jun 23
Full
Jun 29
Last Quarter

Hourly Weather History & Observations

Time (CDT) Temp. Dew Point Humidity Pressure Visibility Wind Dir Wind Speed Gust Speed Precip Events Conditions
12:54 AM 61.0 °F 48.0 °F 62% 30.03 in 10.0 mi SE 9.2 mph - N/A   Mostly Cloudy
1:54 AM 60.1 °F 48.0 °F 64% 30.02 in 10.0 mi SSE 12.7 mph - N/A   Overcast
2:54 AM 60.1 °F 48.0 °F 64% 30.05 in 10.0 mi SSE 12.7 mph - N/A   Overcast
3:54 AM 59.0 °F 48.9 °F 69% 30.01 in 10.0 mi SE 11.5 mph - 0.00 in Rain Light Rain
4:54 AM 59.0 °F 48.9 °F 69% 30.03 in 10.0 mi SSE 6.9 mph - N/A   Overcast
5:54 AM 57.9 °F 46.9 °F 67% 30.04 in 10.0 mi SSE 10.4 mph - N/A   Mostly Cloudy
6:54 AM 57.9 °F 48.0 °F 70% 30.09 in 10.0 mi ENE 3.5 mph - N/A   Overcast
7:54 AM 57.9 °F 48.9 °F 72% 30.13 in 10.0 mi SE 10.4 mph - 0.00 in Rain Light Rain
8:54 AM 55.0 °F 51.1 °F 86% 30.11 in 8.0 mi ESE 9.2 mph - 0.02 in Rain Light Rain
9:54 AM 55.0 °F 51.1 °F 86% 30.07 in 10.0 mi SE 15.0 mph - 0.11 in Rain Light Rain
10:54 AM 55.9 °F 51.1 °F 84% 30.07 in 10.0 mi SE 12.7 mph - 0.03 in Rain Light Rain
11:54 AM 55.0 °F 52.0 °F 89% 30.07 in 5.0 mi NE 4.6 mph - 0.07 in Rain Rain
12:54 PM 57.0 °F 53.1 °F 87% 30.05 in 10.0 mi SSE 8.1 mph - 0.03 in Rain Light Rain
1:54 PM 60.1 °F 54.0 °F 80% 30.03 in 10.0 mi East 9.2 mph - 0.01 in   Overcast
2:54 PM 61.0 °F 54.0 °F 78% 30.04 in 10.0 mi SE 10.4 mph 21.9 mph N/A   Overcast
3:54 PM 60.1 °F 55.0 °F 83% 30.05 in 10.0 mi East 9.2 mph - 0.02 in   Overcast
4:54 PM 60.1 °F 54.0 °F 80% 30.05 in 10.0 mi East 11.5 mph - N/A   Overcast
5:54 PM 59.0 °F 54.0 °F 83% 30.03 in 10.0 mi ENE 17.3 mph - N/A   Overcast
6:54 PM 57.9 °F 52.0 °F 81% 30.03 in 10.0 mi East 15.0 mph - N/A   Overcast
7:54 PM 57.0 °F 51.1 °F 81% 30.04 in 10.0 mi East 9.2 mph - N/A   Overcast
8:54 PM 55.0 °F 50.0 °F 83% 30.08 in 10.0 mi NNE 13.8 mph - 0.00 in   Overcast
9:54 PM 55.9 °F 50.0 °F 80% 30.06 in 10.0 mi East 13.8 mph - N/A   Overcast
10:54 PM 57.0 °F 50.0 °F 77% 30.06 in 10.0 mi ESE 11.5 mph - N/A   Overcast
11:54 PM 57.0 °F 51.1 °F 81% 30.05 in 10.0 mi East 9.2 mph - 0.00 in   Overcast